Probability
8 7 6 6 4 3 2 1 1 0 0 1 0 0 0 0 0 0 0 0 0 0 0 0 0 0 0 0 0 1 2 2 1 0 0 1 1 1
7 7 6 6 4 3 2 2 1 0 1 1 1 0 0 0 0 0 0 0 0 0 0 0 0 0 0 0 0 0 1 1 0 0 0 1 1 1
6 6 6 6 5 4 3 2 1 1 1 2 2 1 1 1 1 0 0 0 0 0 0 0 0 0 0 0 0 0 0 0 0 0 0 0 0 1
6 6 6 6 6 5 4 3 2 2 1 1 2 2 2 2 2 1 1 1 1 1 1 0 0 0 0 0 0 0 0 0 0 0 0 0 0 0
6 6 7 7 7 6 5 4 4 4 3 1 1 1 1 1 2 2 2 2 2 2 2 1 1 1 1 0 0 0 0 0 0 0 0 0 0 0
5 6 7 8 9 8 7 7 7 7 5 2 1 1 1 1 3 4 4 4 4 4 4 3 3 3 2 1 0 0 0 0 0 0 0 0 0 0
5 6 8 9 10 10 9 8 8 8 7 5 3 3 3 4 5 5 6 5 5 5 6 6 5 4 4 3 1 1 0 0 0 0 0 0 0 0
5 6 7 9 9 9 7 7 6 7 7 6 5 5 4 5 6 6 6 6 5 6 6 6 6 5 5 4 3 2 1 0 0 0 0 0 0 0
4 4 6 7 8 7 6 5 4 4 5 5 4 3 3 4 5 6 6 5 4 5 6 6 5 4 4 4 3 3 2 1 0 0 0 0 0 0
3 3 4 5 6 6 6 5 4 3 3 3 3 1 1 2 4 4 4 4 3 4 5 5 4 3 3 3 3 3 2 1 0 0 0 0 0 0
3 3 3 4 4 4 4 4 3 3 3 3 2 1 0 1 2 2 3 3 2 2 3 4 3 3 3 3 3 3 2 0 0 0 0 0 0 0
3 3 3 3 2 2 2 3 3 3 3 3 3 1 1 1 1 1 1 2 2 2 3 3 3 3 3 3 2 2 2 0 0 0 0 0 0 0
3 3 2 1 1 0 1 2 2 3 3 3 3 3 2 2 2 1 1 3 3 3 3 3 3 3 3 2 2 2 1 0 0 0 0 0 0 0
2 2 1 0 0 0 0 1 1 1 3 3 3 3 3 3 3 3 3 3 3 3 3 3 3 3 3 3 2 1 1 0 0 0 0 0 0 0
1 1 0 0 0 0 0 0 0 1 2 3 3 3 3 3 3 3 3 3 3 3 3 3 3 3 3 3 2 1 0 0 0 0 0 0 0 0
0 0 0 0 0 0 0 0 0 0 1 2 3 4 4 3 3 3 3 3 3 3 3 3 3 2 2 2 1 1 0 0 0 0 0 0 0 0
0 0 0 0 0 0 0 0 0 0 0 1 2 4 5 4 4 4 4 3 3 3 3 3 1 1 1 1 0 0 0 0 0 0 0 0 0 0
0 0 0 0 0 0 0 0 0 0 0 1 2 3 4 5 5 6 5 4 3 3 3 2 1 0 0 0 0 0 1 1 0 0 0 0 0 0
0 0 0 0 0 0 0 0 0 0 0 1 2 2 3 4 6 6 6 5 4 4 4 3 1 0 0 0 0 0 1 1 1 1 1 1 0 0
0 0 0 0 0 0 0 0 0 0 0 1 2 2 2 3 5 6 6 6 5 5 6 5 3 1 0 0 0 0 1 1 1 2 2 2 1 0
0 0 0 0 0 0 0 0 0 0 0 0 1 1 1 2 4 5 6 5 5 6 6 6 4 2 2 1 0 0 0 0 1 1 2 2 1 0
0 0 0 0 0 0 0 0 0 0 0 0 0 0 0 1 2 4 5 5 5 5 5 4 3 2 2 1 0 0 0 0 0 0 1 1 0 0
0 0 0 0 0 0 0 0 0 0 0 0 0 0 1 2 2 3 3 4 4 4 2 1 1 1 1 1 0 0 0 0 0 0 0 0 0 0
Wind_Speed
1 0 0 1 0 1 1 2 2 2 2 3 2 2 2 2 3 3 3 5 7 7 7 7 7 7 7 7 7 7 7 7 7 7 7 7 7 8
0 0 0 0 0 0 1 1 1 2 2 2 2 2 2 2 3 3 3 5 7 7 8 8 7 7 7 7 7 7 7 7 7 7 7 7 7 8
1 1 1 0 0 0 0 1 1 1 2 2 2 1 1 2 2 2 2 3 3 6 8 8 8 8 7 7 8 8 7 7 7 7 7 8 8 8
1 0 1 1 1 1 0 0 1 1 2 2 2 1 2 2 2 2 2 2 3 5 6 8 9 8 8 8 8 8 8 8 8 8 8 8 8 8
1 1 1 0 1 1 1 1 1 1 0 1 2 2 1 2 1 2 2 2 3 3 4 6 7 7 8 8 8 8 8 8 8 7 7 7 7 7
1 1 1 1 1 1 1 1 1 0 0 1 1 1 1 2 1 1 2 2 3 2 3 3 5 6 6 7 7 8 8 8 7 7 7 7 7 7
1 1 1 1 1 1 1 1 1 1 1 1 1 1 2 1 1 2 2 2 3 2 1 2 2 2 3 5 6 7 7 7 7 7 7 7 7 8
1 1 1 1 2 2 2 1 2 3 3 2 2 2 3 2 2 2 1 1 3 2 1 3 2 3 3 3 5 6 7 7 7 7 7 7 7 7
1 1 1 2 1 1 2 2 1 1 2 4 3 4 4 3 2 2 2 2 4 3 2 3 2 3 4 4 7 7 7 7 7 7 7 7 7 7
1 1 1 2 1 1 1 1 2 2 2 2 3 4 4 3 3 3 3 2 2 2 2 3 3 3 4 4 6 7 8 7 7 7 7 7 6 6
2 2 1 2 3 1 1 0 2 3 3 2 3 3 3 3 1 1 0 0 1 2 1 1 2 2 2 3 5 7 7 7 7 7 7 6 6 5
3 3 2 2 3 2 2 1 1 3 2 3 3 3 2 2 1 1 2 1 1 2 2 1 1 1 2 2 2 2 3 6 7 6 6 6 5 3
2 3 3 4 3 3 2 3 4 3 2 1 1 2 2 1 1 1 1 2 2 2 2 1 1 1 1 2 2 2 2 2 2 3 5 5 5 5
3 3 3 4 4 3 2 3 3 1 1 0 1 1 2 2 2 2 2 2 2 3 3 2 2 2 1 1 2 2 1 1 1 2 2 2 4 5
3 4 4 4 3 2 3 3 2 1 1 1 1 2 2 3 1 1 2 2 2 2 1 1 2 2 2 2 2 1 2 2 1 1 1 1 2 2
3 4 4 3 2 2 2 2 1 1 1 2 2 2 2 1 1 1 1 1 1 3 3 1 1 2 1 2 2 1 1 1 1 1 0 0 0 1
2 2 2 2 2 2 2 2 1 1 1 1 1 2 2 1 2 1 0 0 1 2 3 2 1 1 1 1 1 1 1 1 1 1 0 0 1 1
1 1 1 1 1 2 2 2 2 2 2 2 1 2 2 2 2 1 1 1 1 2 2 2 2 2 2 2 0 1 1 1 1 0 1 1 2 2
1 1 1 2 2 2 2 2 2 2 2 2 2 2 2 2 2 2 1 1 2 2 2 1 1 0 1 3 3 1 1 1 1 1 1 1 2 2
2 2 3 3 2 2 2 3 3 3 2 2 2 2 2 2 2 2 2 2 2 2 2 1 1 2 3 3 3 3 2 1 1 2 2 1 1 2
3 3 3 3 3 3 3 3 3 3 3 2 2 3 3 2 2 2 2 3 2 2 2 3 4 4 1 1 0 2 2 2 2 2 2 1 1 1
3 3 3 3 3 3 3 3 3 3 3 3 3 3 3 3 3 3 3 2 2 2 3 3 2 1 0 2 2 3 3 3 2 2 2 3 3 3
3 3 3 3 3 3 3 3 4 4 4 4 4 4 3 3 3 3 3 2 2 2 2 2 2 1 1 2 2 2 2 2 1 1 2 3 2 3
Wind_Direction
234 209 216 257 191 179 166 171 171 213 255 247 245 250 247 232 231 222 229 228 220 217 217 218 220 220 220 221 216 218 221 226 227 228 231 236 239 240
186 96 349 288 342 343 184 181 174 192 237 250 250 251 245 249 239 230 231 230 229 226 219 218 221 222 219 218 214 217 219 224 228 231 232 234 238 241
345 48 327 304 338 309 203 174 190 185 225 270 285 288 256 251 259 250 243 230 232 229 223 219 220 223 224 224 221 222 222 226 230 233 235 235 238 242
303 4 317 336 354 308 292 230 215 209 195 251 288 296 276 250 241 238 254 245 236 230 223 221 221 224 226 229 228 227 228 230 232 234 237 238 239 239
276 252 274 329 330 313 301 266 251 237 175 199 271 285 291 278 271 266 259 261 253 238 229 226 221 224 227 229 228 232 233 231 231 234 237 240 242 241
283 272 273 249 237 241 245 257 231 196 174 191 257 284 288 287 264 269 278 278 262 257 250 239 232 231 232 235 234 234 234 232 230 231 232 234 238 240
308 293 287 3 25 297 270 229 192 191 204 220 240 272 281 287 261 258 257 270 272 253 258 254 239 236 238 242 241 239 235 234 232 231 232 236 238 239
321 304 307 329 338 343 347 301 213 202 216 223 240 243 257 252 252 248 249 251 268 258 218 258 225 235 240 232 236 237 239 237 236 234 236 238 241 242
321 302 314 341 335 313 340 359 343 297 215 206 222 242 245 243 236 246 239 233 240 239 203 248 236 237 238 240 237 235 238 239 239 237 237 235 237 239
278 255 258 293 318 334 360 5 336 313 279 226 227 243 244 239 221 222 221 240 269 258 195 236 247 241 244 240 238 236 238 235 235 233 233 232 231 233
309 304 268 270 298 339 85 353 327 321 326 328 305 293 290 279 235 126 89 108 287 284 224 203 252 258 249 244 245 238 235 234 237 237 235 235 235 231
321 320 312 298 288 246 186 191 262 283 308 338 350 344 326 312 314 195 195 197 235 275 272 214 247 254 285 267 252 245 238 242 245 247 243 240 233 215
311 309 305 309 292 266 225 210 236 256 261 261 309 330 334 325 304 285 218 194 204 242 253 189 230 248 234 280 291 265 234 240 240 249 246 240 227 206
283 287 292 302 294 282 262 266 269 273 254 294 316 310 301 294 290 286 269 239 223 229 241 192 199 209 216 255 278 291 282 259 227 233 233 233 232 233
280 291 297 294 294 296 311 302 293 253 224 256 271 271 263 261 282 313 311 301 286 272 268 219 206 214 198 219 251 271 293 298 243 222 228 201 205 210
307 312 310 308 319 325 336 331 309 240 202 229 253 266 282 304 307 293 301 322 334 316 314 295 239 197 216 243 226 251 253 261 289 258 228 253 213 201
321 338 350 355 349 344 343 335 329 339 297 287 270 287 295 298 292 283 269 307 251 284 305 322 326 286 211 191 233 254 252 266 260 251 159 274 278 240
46 351 316 301 288 289 299 310 307 287 273 269 266 262 264 264 275 286 263 220 245 264 270 285 329 354 356 349 310 249 259 249 263 251 189 206 269 273
137 265 272 271 267 268 268 270 274 274 271 263 261 264 261 262 266 265 259 258 261 264 268 266 247 204 269 287 302 304 224 249 245 250 236 210 239 258
234 243 252 259 257 256 260 263 270 283 279 272 272 269 260 252 259 264 256 248 255 267 282 279 239 227 228 233 246 283 288 221 213 236 248 260 276 285
253 254 255 255 258 261 261 259 259 262 268 263 268 271 267 255 255 256 256 262 261 264 268 268 262 265 255 128 302 293 293 278 226 213 210 205 264 303
260 258 258 260 264 264 266 266 264 259 259 259 262 263 263 258 255 255 250 254 257 255 259 270 287 304 212 202 225 251 277 304 304 300 270 211 189 200
255 255 254 257 261 262 262 265 266 266 260 257 259 260 257 256 257 254 257 256 263 274 275 277 291 283 250 215 215 233 251 272 289 320 315 309 268 226